SL-14 DEB, 45278

Orbit data source: Space-Track

SL-14 DEB, 45278 is space debris in LEO originally from a launch on Thu, 15 Aug 1991 UTC launched from the Plesetsk Missile And Space Complex (PKMTR). Debris objects in space refer to the collection of defunct objects orbiting the Earth. Examples of debris include non-operational satellites, rocket bodies, and fragments generated from explosions, collisions, or faulty payload assembly.

Loading next visibility...
Identifier
45278, 1991-056Q
Orbit
LEO
Country
Flag of CISCIS
Related business
Manufacturer
Unknown
Mission
Spacecraft
Bus & Motor
Unknown
Mass
Unknown
Launch date (UTC)
1991-08-15 (34 years ago)
Launch vehicle
Unknown
Launch site
Plesetsk Missile And Space Complex (PKMTR)
Object type
Payload
Rocket body
Debris
Shape & HBR
Unknown shape, 0.2 m
Radar Cross Section
Medium (>0.1 m² and <1 m²)

Expand to show TLE details & history
Last TLE update: 10 hours ago

TLE from 10 hours ago
0 SL-14 DEB
1 45278U 91056Q   25287.77823692 -.00000925  00000-0 -84889-3 0  9993
2 45278  82.5656 201.9114 0153667 265.8318  92.5264 13.78557487281654
Epoch: 2025-10-14T18:40Z
TLE epoch observation values (Epoch: 2025-10-14T18:40:39.669Z)
Latitude
-0.00013°
Longitude
-101.81569°
Altitude
978.61 km
Speed
7.359 km/s
True Right ascension
13h 27m 38s
True Declination
0° 00' 00"
Sunlit
Object was in daylight at epoch
Visualization orbit readout
Latitude
Unknown
Longitude
Unknown
Altitude
Unknown
Speed
Unknown
Apparent Right ascension
Unknown
Apparent Declination
Unknown
Sunlit
N/A
Visualization observer readout
Local Sidereal Time
23:25:07
Azimuth
Unknown
Elevation
Unknown
Doppler factor
Unknown
Orbital elements
Apogee altitude
1,079.023 km
Perigee altitude
853.308 km
Semi-major axis
7,344.302 km
Eccentricity
0.01537
Inclination
82.5656°
RAAN
201.9114°
Arg. of periapsis
265.8318°
True anomaly
94.28382°
Mean anomaly
92.5264°
Eccentric anomaly
93.40529°
Mean motion
3.4484 °/min
Orbital period
104.4 mins
BSTAR
-0.00084889
Loading maneuver chart data...
Computing Atmospheric mass density...
Loading historical data...
Loading historical data...
Loading historical data...
Loading historical data...
Loading historical data...
Loading historical data...
Loading historical data...

Documentation

Showing up to 5 results
|